MOLNIYA 1-91

Last updated on Oct. 25, 2020, 5:56 a.m. UTC

1 25485U 98054A   20298.39237154 -.00000107  00000-0 -69754-3 0  9999
2 25485  62.8915 248.7458 7033732 290.2551 339.3749  2.36441654164165
UTC
Height (km)
Latitude
Longitude
Inclination
Orbital Period
UTC large
Height (km)
Speed (km/s)
/
Latitude / Longitude
Inclination (degrees)
Orbital Period (minutes)
Azimuth
Elevation
Range (km)
Doppler Factor
iOS Compass Heading
iOS Angle

Next 30 passes for location: Hong Kong

Rise time Rise Azimuth (degrees) Set time Set Azimuth (degrees) Duration Max altitude (degrees)

No matching passes for this satellites